Weather History for Sanford, FL

Change the Weather History Date:

Monday, August 11, 2014

  Actual Average Record
Temperature  
Mean Temperature 82 °F -  
Max Temperature 91 °F 92 °F 98 °F (2006)
Min Temperature 75 °F 71 °F 67 °F (1979)
Cooling Degree Days 18    
Growing Degree Days 32 (Base 50)    
Moisture  
Dew Point 74 °F    
Average Humidity 84    
Maximum Humidity 94    
Minimum Humidity 63    
Precipitation  
Precipitation 0.53 in - - ()
Sea Level Pressure  
Sea Level Pressure 30.01 in    
Wind  
Wind Speed 9 mph (WSW)    
Max Wind Speed 22 mph    
Max Gust Speed 32 mph    
Visibility 9 miles    
Events Rain , Thunderstorm    
Averages and records for this station are not official NWS values.
T = Trace of Precipitation, MM = Missing Value Source: NWS Daily Summary

Daily Weather History Graph

Daily Weather History Graph

Search for Another Location

Airport:

Trip Planner

Search our weather history database for the weather conditions in past years. The results will help you decide how hot, cold, wet, or windy it might be!

Date:

Astronomy

Aug. 11, 2014 Rise Set
Actual Time 6:51 AM EDT 8:08 PM EDT
Civil Twilight 6:26 AM EDT 8:33 PM EDT
Nautical Twilight 5:57 AM EDT 9:02 PM EDT
Astronomical Twilight 5:26 AM EDT 9:33 PM EDT
Moon 8:47 PM EDT (8/11) 7:46 AM EDT (8/11)
Length of Visible Light 14h 06m
Length of Day
13h 16m
Full, 99% of the Moon is Illuminated
Aug 11
Full
Aug 17
Last Quarter
Aug 25
New
Sep 2
First Quarter
Sep 8
Full

Hourly Weather History & Observations

Time (EDT) Temp. Heat Index Dew Point Humidity Pressure Visibility Wind Dir Wind Speed Gust Speed Precip Events Conditions
12:53 AM 78.1 °F - 73.0 °F 84% 30.03 in 10.0 mi SW 6.9 mph - N/A   Clear
1:53 AM 77.0 °F - 73.9 °F 90% 30.03 in 10.0 mi SW 5.8 mph - N/A   Clear
2:53 AM 77.0 °F - 73.0 °F 88% 30.01 in 10.0 mi SW 5.8 mph - N/A   Clear
3:53 AM 77.0 °F - 72.0 °F 84% 29.99 in 10.0 mi SW 6.9 mph - N/A   Clear
4:53 AM 77.0 °F - 73.0 °F 88% 29.99 in 10.0 mi SW 5.8 mph - N/A   Clear
5:53 AM 77.0 °F - 73.9 °F 90% 29.99 in 10.0 mi SSW 5.8 mph - N/A   Clear
6:53 AM 77.0 °F - 73.9 °F 90% 30.01 in 10.0 mi SSW 5.8 mph - N/A   Clear
7:53 AM 78.1 °F - 75.9 °F 93% 30.02 in 10.0 mi South 5.8 mph - N/A   Clear
8:53 AM 81.0 °F 87.3 °F 75.9 °F 85% 30.03 in 10.0 mi SW 8.1 mph - N/A   Scattered Clouds
9:53 AM 82.9 °F 90.2 °F 75.0 °F 77% 30.04 in 10.0 mi WSW 13.8 mph - N/A   Partly Cloudy
10:53 AM 87.1 °F 96.3 °F 75.0 °F 67% 30.04 in 10.0 mi WSW 16.1 mph - N/A   Partly Cloudy
11:53 AM 87.1 °F 96.3 °F 75.0 °F 67% 30.03 in 10.0 mi West 10.4 mph - N/A   Partly Cloudy
12:25 PM 90.0 °F 101.3 °F 75.9 °F 63% 30.02 in 10.0 mi WSW 9.2 mph - N/A Thunderstorm Mostly Cloudy
12:44 PM 78.1 °F - 73.0 °F 84% 30.04 in 2.0 mi West 21.9 mph 32.2 mph 0.06 in Rain , Thunderstorm Heavy Thunderstorms and Rain
12:51 PM 75.2 °F - 73.4 °F 94% 30.04 in 1.0 mi West 10.4 mph - 0.15 in Rain , Thunderstorm Heavy Thunderstorms and Rain
12:53 PM 77.0 °F - 73.9 °F 90% 30.04 in 1.0 mi WSW 9.2 mph - 0.16 in Rain , Thunderstorm Heavy Thunderstorms and Rain
1:36 PM 79.0 °F - 75.9 °F 90% 30.03 in 10.0 mi South 9.2 mph - 0.03 in   Mostly Cloudy
1:53 PM 80.1 °F 85.4 °F 75.9 °F 87% 30.01 in 10.0 mi South 9.2 mph - 0.03 in   Scattered Clouds
2:53 PM 87.1 °F 95.4 °F 73.9 °F 65% 30.00 in 10.0 mi WSW 16.1 mph 24.2 mph N/A   Partly Cloudy
3:10 PM 86.0 °F 93.8 °F 73.9 °F 67% 30.01 in 10.0 mi West 10.4 mph 21.9 mph N/A Thunderstorm Partly Cloudy
3:31 PM 79.0 °F - 73.9 °F 84% 30.01 in 0.8 mi NW 17.3 mph 26.5 mph 0.22 in Rain , Thunderstorm Light Rain
3:53 PM 78.1 °F - 75.9 °F 93% 30.01 in 10.0 mi NNW 11.5 mph - 0.34 in Thunderstorm Scattered Clouds
4:05 PM 77.0 °F - 75.0 °F 94% 30.01 in 10.0 mi NW 10.4 mph - N/A   Partly Cloudy
4:53 PM 78.1 °F - 75.0 °F 90% 30.01 in 10.0 mi WNW 4.6 mph - N/A   Mostly Cloudy
5:53 PM 79.0 °F - 73.0 °F 82% 29.99 in 10.0 mi West 8.1 mph - N/A   Partly Cloudy
6:53 PM 80.1 °F 84.5 °F 73.9 °F 81% 30.00 in 10.0 mi WSW 16.1 mph 23.0 mph N/A   Partly Cloudy
7:53 PM 77.0 °F - 73.0 °F 88% 29.99 in 10.0 mi WSW 10.4 mph - N/A   Clear
8:53 PM 78.1 °F - 73.0 °F 84% 29.99 in 10.0 mi SW 6.9 mph - N/A   Clear
9:53 PM 78.1 °F - 73.0 °F 84% 29.99 in 10.0 mi WSW 6.9 mph - N/A   Clear
10:53 PM 77.0 °F - 73.9 °F 90% 30.00 in 10.0 mi SW 4.6 mph - N/A   Clear
11:53 PM 77.0 °F - 73.9 °F 90% 30.01 in 10.0 mi WSW 6.9 mph - N/A   Clear